Location: Malvern Link
(52.1333°N, 2.3000°W)
Time: 02:50:01
(UTC+00:00)

Cosmos 1634 Rocket - Pass Details

Date: 03 December 2021
Orbit: 959 x 993 km, 82.9° (Epoch: 21 January)

Event Time Altitude Azimuth Distance (km) Brightness Sun altitude
Rises 17:10:18 0° 161° (SSE) 3,695 7.1 -10.3°
Reaches altitude 10° 17:12:58 10° 154° (SSE) 2,752 6.3 -10.6°
Maximum altitude 17:18:46 40° 88° (E) 1,435 4.5 -11.5°
Drops below altitude 10° 17:24:35 10° 21° (NNE) 2,768 6.0 -12.3°
Sets 17:27:15 0° 15° (NNE) 3,719 6.7 -12.7°
